PITTSFIELD MILLS DAM SUNCOOK RIVER PITTSFIELD, NH: From 11/04/2019 09:00 to 11/18/2019 16:00

Date PRECIPITATION INCREMENT [IN] WATER TEMPERATURE [F] AIR TEMPERATURE [F] POOL ELEVATION [FT] RESERVOIR RELEASE [CFS]
11/18/2019 09:00 0.00 36.1 32.0 474.75 78.8
11/18/2019 08:00 0.00 36.0 32.0 474.75 79.5
11/18/2019 07:00 0.00 36.0 32.0 474.75 79.0
11/18/2019 06:00 0.00 36.0 31.0 474.75 79.0
11/18/2019 05:00 0.00 36.0 31.0 474.75 79.3
11/18/2019 04:00 0.00 36.0 31.0 474.75 79.3
11/18/2019 03:00 0.00 36.0 32.0 474.75 79.3
11/18/2019 02:00 0.00 36.1 32.0 474.75 80.0
11/18/2019 01:00 0.00 36.1 31.0 474.75 79.8
11/18/2019 00:00 0.00 36.1 31.0 474.75 79.3
11/17/2019 23:00 0.00 36.1 31.0 474.75 80.0
11/17/2019 22:00 0.00 36.1 31.0 474.75 79.8
11/17/2019 21:00 0.00 36.1 31.0 474.75 80.5
11/17/2019 20:00 0.00 36.1 32.0 474.75 80.5
11/17/2019 19:00 0.00 36.1 32.0 474.75 80.5
11/17/2019 18:00 0.00 36.1 33.0 474.75 80.5
11/17/2019 17:00 0.00 36.1 34.0 474.75 80.5
11/17/2019 16:00 0.00 36.1 34.0 474.75 81.5
11/17/2019 15:00 0.00 36.3 37.0 474.75 81.5
11/17/2019 14:00 0.00 36.3 37.0 474.75 81.0
11/17/2019 13:00 0.00 36.3 33.0 474.75 81.5
11/17/2019 12:00 0.00 36.5 31.0 474.75 82.0
11/17/2019 11:00 0.00 36.3 28.0 474.75 82.3
11/17/2019 10:00 0.00 36.1 23.0 474.75 82.0
11/17/2019 09:00 0.00 36.1 13.0 474.76 82.8
11/17/2019 08:00 0.00 36.1 10.0 474.76 83.5
11/17/2019 07:00 0.00 36.3 10.0 474.76 84.5
11/17/2019 06:00 0.00 36.3 10.0 474.76 85.0
11/17/2019 05:00 0.00 36.3 11.0 474.76 85.5
11/17/2019 04:00 0.00 36.1 12.0 474.76 86.3
11/17/2019 03:00 0.00 36.1 11.0 474.76 86.5
11/17/2019 02:00 0.00 36.3 12.0 474.77 87.0
11/17/2019 01:00 0.00 36.3 13.0 474.77 88.0
11/17/2019 00:00 0.00 36.3 15.0 474.77 89.0
11/16/2019 23:00 0.00 36.5 16.0 474.77 89.5
11/16/2019 22:00 0.00 36.3 17.0 474.77 90.0
11/16/2019 21:00 0.00 36.3 19.0 474.77 90.0
11/16/2019 20:00 0.00 36.3 20.0 474.78 90.5
11/16/2019 19:00 0.00 36.3 23.0 474.77 90.8
11/16/2019 18:00 0.00 36.3 26.0 474.77 90.0
11/16/2019 17:00 0.00 36.3 28.0 474.78 90.3
11/16/2019 16:00 0.00 36.3 29.0 474.77 90.0
11/16/2019 15:00 0.00 36.3 29.0 474.77 90.0
11/16/2019 14:00 0.00 36.3 29.0 474.78 91.3
11/16/2019 13:00 0.00 36.3 28.0 474.78 91.5
11/16/2019 12:00 0.00 36.1 26.0 474.78 92.8
11/16/2019 11:00 0.00 36.0 23.0 474.78 93.5
11/16/2019 10:00 0.00 35.8 22.0 474.78 93.8
11/16/2019 09:00 0.00 35.8 19.0 474.78 94.5
11/16/2019 08:00 0.00 35.8 18.0 474.78 94.0
11/16/2019 07:00 0.00 35.8 20.0 474.78 95.8
11/16/2019 06:00 0.00 35.8 22.0 474.78 94.3
11/16/2019 05:00 0.00 35.6 23.0 474.78 96.5
11/16/2019 04:00 0.00 35.8 24.0 474.79 95.3
11/16/2019 03:00 0.00 35.8 28.0 474.79 94.3
11/16/2019 02:00 0.00 35.6 30.0 474.78 96.5
11/16/2019 01:00 0.00 35.6 32.0 474.80 96.0
11/16/2019 00:00 0.00 35.8 33.0 474.78 97.5
11/15/2019 23:00 0.00 35.8 39.0 474.80 98.3
11/15/2019 22:00 0.00 35.8 39.0 474.79 97.0
11/15/2019 21:00 0.00 35.8 40.0 474.79 97.8
11/15/2019 20:00 0.00 35.8 40.0 474.80 99.5
11/15/2019 19:00 0.00 35.6 42.0 474.80 98.8
11/15/2019 18:00 0.00 35.6 44.0 474.78 97.3
11/15/2019 17:00 0.00 35.4 46.0 474.79 99.0
11/15/2019 16:00 0.00 35.4 47.0 474.81 100.8
11/15/2019 15:00 0.00 35.4 46.0 474.80 99.5
11/15/2019 14:00 0.00 35.4 45.0 474.80 100.0
11/15/2019 13:00 0.00 35.6 43.0 474.80 100.3
11/15/2019 12:00 0.00 35.6 40.0 474.80 100.0
11/15/2019 11:00 0.00 35.4 36.0 474.80 100.0
11/15/2019 10:00 0.00 35.4 32.0 474.80 100.0
11/15/2019 09:00 0.00 35.4 22.0 474.80 100.0
11/15/2019 08:00 0.00 35.6 20.0 474.80 100.8
11/15/2019 07:00 0.00 35.4 22.0 474.80 101.0
11/15/2019 06:00 0.00 35.4 24.0 474.80 101.0
11/15/2019 05:00 0.00 35.6 26.0 474.80 101.0
11/15/2019 04:00 0.00 35.8 26.0 474.80 101.0
11/15/2019 03:00 0.00 35.6 26.0 474.80 102.5
11/15/2019 02:00 0.00 35.4 26.0 474.80 102.5
11/15/2019 01:00 0.00 35.6 27.0 474.80 103.0
11/15/2019 00:00 0.00 35.6 27.0 474.80 103.0
11/14/2019 23:00 0.00 35.6 27.0 474.80 103.3
11/14/2019 22:00 0.00 35.8 28.0 474.80 103.3
11/14/2019 21:00 0.00 35.8 28.0 474.81 104.0
11/14/2019 20:00 0.00 35.8 28.0 474.81 104.0
11/14/2019 19:00 0.00 36.0 28.0 474.81 105.5
11/14/2019 18:00 0.00 36.1 29.0 474.81 105.5
11/14/2019 17:00 0.00 36.1 29.0 474.81 105.0
11/14/2019 16:00 0.00 36.1 29.0 474.81 106.0
11/14/2019 15:00 0.00 36.3 28.0 474.81 106.0
11/14/2019 14:00 0.00 36.5 26.0 474.81 106.3
11/14/2019 13:00 0.00 36.5 26.0 474.81 106.0
11/14/2019 12:00 0.00 36.9 25.0 474.81 106.8
11/14/2019 11:00 0.00 36.9 23.0 474.81 107.0
11/14/2019 10:00 0.00 37.0 18.0 474.81 107.5
11/14/2019 09:00 0.00 37.0 15.0 474.81 108.5
11/14/2019 08:00 0.00 37.0 12.0 474.82 109.3
11/14/2019 07:00 0.00 37.2 11.0 474.82 109.8
11/14/2019 06:00 0.00 37.2 11.0 474.82 110.5
11/14/2019 05:00 0.00 37.2 11.0 474.82 112.0
11/14/2019 04:00 0.00 37.4 11.0 474.82 112.3
11/14/2019 03:00 0.00 37.4 12.0 474.83 113.0
11/14/2019 02:00 0.00 37.4 12.0 474.83 113.0
11/14/2019 01:00 0.00 37.4 14.0 474.83 115.5
11/14/2019 00:00 0.00 37.8 15.0 474.83 114.8
11/13/2019 23:00 0.00 37.8 15.0 474.83 116.5
11/13/2019 22:00 0.00 37.8 16.0 474.83 116.0
11/13/2019 21:00 0.00 37.9 18.0 474.83 118.0
11/13/2019 20:00 0.00 37.8 19.0 474.84 118.3
11/13/2019 19:00 0.00 37.8 20.0 474.84 118.3
11/13/2019 18:00 0.00 37.9 21.0 474.84 117.8
11/13/2019 17:00 0.00 37.8 23.0 474.83 119.0
11/13/2019 16:00 0.00 38.1 23.0 474.84 117.5
11/13/2019 15:00 0.00 37.9 22.0 474.83 118.3
11/13/2019 14:00 0.00 37.8 22.0 474.85 123.0
11/13/2019 13:00 0.00 37.9 20.0 474.84 115.5
11/13/2019 12:00 0.00 38.3 18.0 474.85 120.5
11/13/2019 11:00 0.00 38.3 17.0 474.83 117.0
11/13/2019 10:00 0.00 38.8 15.0 474.85 122.0
11/13/2019 09:00 0.00 38.3 13.0 474.84 120.8
11/13/2019 08:00 0.00 38.3 12.0 474.85 123.8
11/13/2019 07:00 0.00 38.7 12.0 474.85 123.3
11/13/2019 06:00 0.00 39.0 13.0 474.85 125.3
11/13/2019 05:00 0.00 39.0 14.0 474.85 127.3
11/13/2019 04:00 0.00 39.0 14.0 474.86 126.5
11/13/2019 03:00 0.00 39.4 15.0 474.87 127.5
11/13/2019 02:00 0.00 39.4 16.0 474.85 125.8
11/13/2019 01:00 0.00 39.9 17.0 474.85 126.0
11/13/2019 00:00 0.00 40.1 18.0 474.86 127.0
11/12/2019 23:00 0.00 40.1 19.0 474.85 127.3
11/12/2019 22:00 0.00 40.1 21.0 474.86 128.3
11/12/2019 21:00 0.00 40.5 23.0 474.86 130.3
11/12/2019 20:00 0.00 40.6 24.0 474.86 129.5
11/12/2019 19:00 0.00 40.6 25.0 474.86 129.3
11/12/2019 18:00 0.00 40.8 25.0 474.86 127.8
11/12/2019 17:00 0.00 40.8 26.0 474.86 130.0
11/12/2019 16:00 0.00 40.8 26.0 474.87 129.3
11/12/2019 15:00 0.00 41.0 27.0 474.85 128.3
11/12/2019 14:00 0.00 41.0 30.0 474.86 132.5
11/12/2019 13:00 0.01 41.2 32.0 474.85 130.5
11/12/2019 12:00 0.04 41.2 33.0 474.87 132.3
11/12/2019 11:00 0.03 41.2 33.0 474.87 132.5
11/12/2019 10:00 0.00 41.4 31.0 474.87 132.0
11/12/2019 09:00 0.00 41.4 31.0 474.87 132.5
11/12/2019 08:00 0.00 41.4 30.0 474.87 132.5
11/12/2019 07:00 0.00 41.4 30.0 474.87 132.8
11/12/2019 06:00 0.00 41.5 30.0 474.87 133.0
11/12/2019 05:00 0.00 41.5 30.0 474.87 133.0
11/12/2019 04:00 0.00 41.4 30.0 474.87 134.0
11/12/2019 03:00 0.00 41.4 31.0 474.87 134.5
11/12/2019 02:00 0.00 41.4 30.0 474.88 135.0
11/12/2019 01:00 0.00 41.4 31.0 474.88 136.0
11/12/2019 00:00 0.00 41.4 32.0 474.88 137.3
11/11/2019 23:00 0.00 41.4 32.0 474.88 136.5
11/11/2019 22:00 0.00 41.4 33.0 474.88 137.5
11/11/2019 21:00 0.00 41.2 34.0 474.89 138.5
11/11/2019 20:00 0.00 41.2 35.0 474.88 137.8
11/11/2019 19:00 0.00 41.2 37.0 474.88 137.8
11/11/2019 18:00 0.00 41.2 38.0 474.88 139.0
11/11/2019 17:00 0.00 41.2 39.0 474.88 139.0
11/11/2019 16:00 0.00 41.0 40.0 474.88 139.5
11/11/2019 15:00 0.00 41.0 41.0 474.88 140.0
11/11/2019 14:00 0.00 41.0 41.0 474.88 140.0
11/11/2019 13:00 0.00 40.8 41.0 474.88 140.5
11/11/2019 12:00 0.00 40.8 42.0 474.89 141.0
11/11/2019 11:00 0.00 40.8 42.0 474.89 141.5
11/11/2019 10:00 0.00 40.8 40.0 474.89 142.0
11/11/2019 09:00 0.00 40.8 38.0 474.89 142.3
11/11/2019 08:00 0.00 41.0 37.0 474.89 143.0
11/11/2019 07:00 0.00 41.0 37.0 474.89 143.0
11/11/2019 06:00 0.00 41.0 38.0 474.89 144.0
11/11/2019 05:00 0.00 41.0 39.0 474.89 145.0
11/11/2019 04:00 0.00 41.0 39.0 474.89 145.0
11/11/2019 03:00 0.00 41.0 38.0 474.90 145.5
11/11/2019 02:00 0.00 41.0 38.0 474.89 145.8
11/11/2019 01:00 0.00 40.8 39.0 474.90 146.0
11/11/2019 00:00 0.00 40.8 37.0 474.90 146.0
11/10/2019 23:00 0.00 40.8 37.0 474.90 146.5
11/10/2019 22:00 0.00 40.8 39.0 474.90 148.0
11/10/2019 21:00 0.00 40.8 39.0 474.90 148.5
11/10/2019 20:00 0.00 40.8 43.0 474.90 149.5
11/10/2019 19:00 0.00 40.6 41.0 474.90 149.5
11/10/2019 18:00 0.00 40.6 41.0 474.90 150.0
11/10/2019 17:00 0.00 40.6 46.0 474.91 150.5
11/10/2019 16:00 0.00 40.5 46.0 474.91 150.8
11/10/2019 15:00 0.00 40.5 45.0 474.90 151.0
11/10/2019 14:00 0.00 40.3 43.0 474.90 150.5
11/10/2019 13:00 0.00 39.9 40.0 474.90 150.5
11/10/2019 12:00 0.00 39.7 39.0 474.91 153.0
11/10/2019 11:00 0.00 39.7 38.0 474.91 153.0
11/10/2019 10:00 0.00 39.7 36.0 474.91 153.5
11/10/2019 09:00 0.00 39.7 32.0 474.91 154.5
11/10/2019 08:00 0.00 39.9 31.0 474.91 155.0
11/10/2019 07:00 0.00 40.1 31.0 474.91 155.0
11/10/2019 06:00 0.00 40.3 31.0 474.91 155.8
11/10/2019 05:00 0.00 40.5 31.0 474.91 156.0
11/10/2019 04:00 0.00 40.5 31.0 474.91 156.5
11/10/2019 03:00 0.00 40.5 29.0 474.92 158.0
11/10/2019 02:00 0.00 40.6 29.0 474.92 158.0
11/10/2019 01:00 0.00 40.6 29.0 474.92 158.5
11/10/2019 00:00 0.00 40.6 30.0 474.92 160.0
11/09/2019 23:00 0.00 40.8 30.0 474.92 160.3
11/09/2019 22:00 0.00 40.8 28.0 474.92 161.0
11/09/2019 21:00 0.00 41.0 26.0 474.92 161.5
11/09/2019 20:00 0.00 41.2 27.0 474.93 162.5
11/09/2019 19:00 0.00 41.4 29.0 474.93 163.0
11/09/2019 18:00 0.00 41.7 32.0 474.93 163.0
11/09/2019 17:00 0.00 41.9 38.0 474.93 165.0
11/09/2019 16:00 0.00 42.1 38.0 474.93 164.0
11/09/2019 15:00 0.00 42.3 37.0 474.93 165.5
11/09/2019 14:00 0.00 42.1 37.0 474.93 167.0
11/09/2019 13:00 0.00 41.9 35.0 474.93 167.5
11/09/2019 12:00 0.00 41.5 32.0 474.94 167.8
11/09/2019 11:00 0.00 41.4 30.0 474.94 168.0
11/09/2019 10:00 0.00 41.5 27.0 474.94 170.0
11/09/2019 09:00 0.00 41.7 21.0 474.94 171.5
11/09/2019 08:00 0.00 41.9 17.0 474.94 172.3
11/09/2019 07:00 0.00 42.1 19.0 474.95 172.8
11/09/2019 06:00 0.00 42.4 19.0 474.95 175.0
11/09/2019 05:00 0.00 42.6 19.0 474.95 176.5
11/09/2019 04:00 0.00 42.8 20.0 474.95 177.5
11/09/2019 03:00 0.00 43.0 23.0 474.95 178.0
11/09/2019 02:00 0.00 43.2 21.0 474.96 179.8
11/09/2019 01:00 0.00 43.2 24.0 474.96 181.0
11/09/2019 00:00 0.00 43.3 24.0 474.96 182.0
11/08/2019 23:00 0.00 43.5 25.0 474.96 183.0
11/08/2019 22:00 0.00 43.5 25.0 474.97 185.0
11/08/2019 21:00 0.00 43.7 26.0 474.97 185.5
11/08/2019 20:00 0.00 43.9 27.0 474.97 185.5
11/08/2019 19:00 0.00 44.1 27.0 474.97 186.0
11/08/2019 18:00 0.00 44.2 28.0 474.95 181.8
11/08/2019 17:00 0.00 44.4 28.0 474.97 176.5
11/08/2019 16:00 0.00 44.6 29.0 474.97 186.8
11/08/2019 15:00 0.00 44.8 30.0 474.99 183.3
11/08/2019 14:00 0.00 44.8 30.0 474.98 185.8
11/08/2019 13:00 0.00 44.8 29.0 474.97 186.3
11/08/2019 12:00 0.00 44.6 29.0 474.95 183.3
11/08/2019 11:00 0.00 44.8 27.0 474.97 187.8
11/08/2019 10:00 0.00 44.8 29.0 474.97 187.8
11/08/2019 09:00 0.00 45.0 27.0 474.97 187.0
11/08/2019 08:00 0.00 45.3 26.0 474.97 188.5
11/08/2019 07:00 0.00 45.5 27.0 474.97 188.0
11/08/2019 06:00 0.00 45.5 29.0 474.97 188.0
11/08/2019 05:00 0.00 45.7 29.0 474.98 188.8
11/08/2019 04:00 0.00 45.9 31.0 474.98 187.8
11/08/2019 03:00 0.00 46.0 32.0 474.97 188.0
11/08/2019 02:00 0.00 46.2 33.0 474.97 188.5
11/08/2019 01:00 0.00 46.2 34.0 474.97 188.5
11/08/2019 00:00 0.01 46.4 34.0 474.98 188.5
11/07/2019 23:00 0.03 46.4 36.0 474.97 188.0
11/07/2019 22:00 0.02 46.4 37.0 474.97 188.5
11/07/2019 21:00 0.02 46.4 38.0 474.97 188.5
11/07/2019 20:00 0.05 46.4 40.0 474.97 188.3
11/07/2019 19:00 0.07 46.4 40.0 474.97 188.0
11/07/2019 18:00 0.07 46.6 40.0 474.97 186.0
11/07/2019 17:00 0.05 46.6 41.0 474.97 184.5
11/07/2019 16:00 0.01 46.6 41.0 474.97 184.0
11/07/2019 15:00 0.00 46.6 41.0 474.97 184.5
11/07/2019 14:00 0.00 46.6 41.0 474.97 186.0
11/07/2019 13:00 0.00 46.6 40.0 474.97 186.0
11/07/2019 12:00 0.00 46.6 40.0 474.97 186.5
11/07/2019 11:00 0.00 46.6 38.0 474.97 187.5
11/07/2019 10:00 0.00 46.6 36.0 474.97 188.3
11/07/2019 09:00 0.00 46.6 32.0 474.97 188.5
11/07/2019 08:00 0.00 46.8 31.0 474.98 189.5
11/07/2019 07:00 0.00 46.9 33.0 474.98 191.0
11/07/2019 06:00 0.00 46.9 31.0 474.98 191.5
11/07/2019 05:00 0.00 47.1 31.0 474.98 193.0
11/07/2019 04:00 0.00 47.3 30.0 474.98 194.5
11/07/2019 03:00 0.00 47.5 29.0 474.99 195.0
11/07/2019 02:00 0.00 47.5 29.0 474.99 197.0
11/07/2019 01:00 0.00 47.5 29.0 474.99 197.0
11/07/2019 00:00 0.00 47.5 29.0 474.99 198.0
11/06/2019 23:00 0.00 47.5 29.0 474.99 199.5
11/06/2019 22:00 0.00 47.7 31.0 475.00 201.5
11/06/2019 21:00 0.00 47.5 32.0 475.00 202.0
11/06/2019 20:00 0.00 47.7 34.0 475.00 204.0
11/06/2019 19:00 0.00 47.7 37.0 475.01 205.5
11/06/2019 18:00 0.00 47.7 43.0 475.01 206.0
11/06/2019 17:00 0.00 47.7 48.0 475.01 204.5
11/06/2019 16:00 0.00 47.5 48.0 475.01 207.0
11/06/2019 15:00 0.00 47.3 48.0 475.01 205.8
11/06/2019 14:00 0.00 47.5 47.0 475.00 207.5
11/06/2019 13:00 0.00 47.5 46.0 474.99 207.5
11/06/2019 12:00 0.00 47.5 46.0 475.01 212.3
11/06/2019 11:00 0.00 47.3 45.0 475.03 216.0
11/06/2019 10:00 0.00 47.3 42.0 475.02 216.5
11/06/2019 09:00 0.00 47.5 33.0 475.03 219.5
11/06/2019 08:00 0.00 47.7 30.0 475.03 221.3
11/06/2019 07:00 0.00 47.8 31.0 475.03 221.8
11/06/2019 06:00 0.00 48.0 32.0 475.04 222.5
11/06/2019 05:00 0.00 48.0 34.0 475.04 224.0
11/06/2019 04:00 0.00 48.2 38.0 475.04 224.5
11/06/2019 03:00 0.00 48.4 42.0 475.04 226.0
11/06/2019 02:00 0.00 48.4 45.0 475.05 227.5
11/06/2019 01:00 0.00 48.4 47.0 475.05 227.5
11/06/2019 00:00 0.00 48.2 47.0 475.04 227.5
11/05/2019 23:00 0.00 48.2 48.0 475.05 227.5
11/05/2019 22:00 0.00 48.2 45.0 475.05 227.0
11/05/2019 21:00 0.00 48.2 46.0 475.05 225.5
11/05/2019 20:00 0.00 48.2 48.0 475.04 222.3
11/05/2019 19:00 0.00 48.2 50.0 475.03 217.5
11/05/2019 18:00 0.00 48.2 51.0 475.02 209.5
11/05/2019 17:00 0.00 48.0 52.0 475.01 201.3
11/05/2019 16:00 0.00 48.0 53.0 474.99 190.8
11/05/2019 15:00 0.00 48.0 53.0 474.97 183.5
11/05/2019 14:00 0.00 48.0 51.0 474.97 187.5
11/05/2019 13:00 0.00 48.0 51.0 474.99 203.0
11/05/2019 12:00 0.00 48.0 52.0 475.01 207.0
11/05/2019 11:00 0.00 47.8 48.0 474.98 169.3
11/05/2019 10:00 0.00 47.8 44.0 474.88 132.3
11/05/2019 09:00 0.00 47.8 42.0 474.87 132.5
11/05/2019 08:00 0.00 48.0 41.0 474.87 136.3
11/05/2019 07:00 0.00 48.0 41.0 474.88 140.5
11/05/2019 06:00 0.00 48.0 41.0 474.89 144.3
11/05/2019 05:00 0.00 48.2 42.0 474.90 148.5
11/05/2019 04:00 0.00 48.2 44.0 474.91 153.0
11/05/2019 03:00 0.00 48.2 45.0 474.91 157.3
11/05/2019 02:00 0.00 48.2 45.0 474.92 163.0
11/05/2019 01:00 0.00 48.2 45.0 474.93 168.0
11/05/2019 00:00 0.00 48.2 45.0 474.94 173.3
11/04/2019 23:00 0.00 48.2 44.0 474.95 179.5
11/04/2019 22:00 0.00 48.2 45.0 474.97 187.3
11/04/2019 21:00 0.00 48.2 44.0 474.98 197.0
11/04/2019 20:00 0.00 48.2 45.0 475.00 204.0
11/04/2019 19:00 0.00 48.2 46.0 475.01 207.0
11/04/2019 18:00 0.00 48.2 46.0 475.01 208.0
11/04/2019 17:00 0.00 48.0 49.0 475.01 208.0
11/04/2019 16:00 0.00 48.0 51.0 475.01 209.5
11/04/2019 15:00 0.00 47.8 50.0 475.01 208.0
11/04/2019 14:00 0.00 47.8 48.0 475.02 209.5
11/04/2019 13:00 0.00 48.0 46.0 475.02 210.0
11/04/2019 12:00 0.00 48.0 45.0 475.01 210.5
11/04/2019 11:00 0.00 47.7 42.0 475.02 211.0
11/04/2019 10:00 0.00 47.7 37.0 475.02 211.5
11/04/2019 09:00 -- -- -- -- --